Location: Aldenham
(51.6667°N, 0.3500°W)
Time: 03:15:55
(UTC+00:00)

Altair - Pass Details

Date: 25 February 2026
Orbit: 1502 x 1682 km, 47.2° (Epoch: 7 March)

Event Time Altitude Azimuth Distance (km) Brightness Sun altitude
Rises 02:04:37 0° 210° (SSW) 4,629 - -41.9°
Reaches altitude 10° 02:07:59 10° 201° (SSW) 3,646 - -41.6°
Maximum altitude 02:15:48 33° 142° (SE) 2,311 - -40.8°
Exits shadow 02:17:43 31° 120° (ESE) 2,419 8.5 -40.6°
Drops below altitude 10° 02:23:44 10° 83° (E) 3,698 9.9 -39.9°
Sets 02:27:10 0° 74° (ENE) 4,703 10.7 -39.6°
